This is the latest recevied weather packets stored in our database for station/object WX8ASH-13. If no packets are shown the sender has not sent any weather packets the latest 1 day(s).
| Time | Temp. | Humidity | Pressure | Rain* | Wind** | Luminosity | Snow |
|---|---|---|---|---|---|---|---|
| 1777990836 | 18.33° C | 71% | 1008 hPa | 0 mm | 0.45 m/s, 273° | - | - |
| 1777990536 | 18.33° C | 73% | 1008 hPa | 0 mm | 0.89 m/s, 291° | - | - |
| 1777990240 | 18.33° C | 72% | 1007.9 hPa | 0 mm | 0 m/s | - | - |
| 1777989937 | 18.33° C | 73% | 1007.8 hPa | 0 mm | 0 m/s | - | - |
| 1777989635 | 17.78° C | 74% | 1007.9 hPa | 0 mm | 4.02 m/s, 239° | - | - |
| 1777989337 | 17.78° C | 73% | 1007.8 hPa | 0 mm | 0 m/s | - | - |
| 1777989034 | 17.78° C | 74% | 1008 hPa | 0 mm | 0.89 m/s, 263° | - | - |
| 1777988737 | 17.78° C | 76% | 1008.1 hPa | 0 mm | 0 m/s | - | - |
| 1777988434 | 17.22° C | 76% | 1008.1 hPa | 0 mm | 0.45 m/s, 262° | - | - |
| 1777988134 | 17.22° C | 79% | 1008.2 hPa | 0 mm | 1.79 m/s, 256° | - | - |
| 1777987837 | 16.67° C | 79% | 1008.1 hPa | 0 mm | 2.24 m/s, 267° | - | - |
| 1777987534 | 16.67° C | 80% | 1008.2 hPa | 0 mm | 0.89 m/s, 240° | - | - |
| 1777987239 | 16.67° C | 81% | 1008.3 hPa | 0 mm | 2.24 m/s, 273° | - | - |
| 1777986933 | 16.11° C | 82% | 1008 hPa | 0 mm | 0 m/s | - | - |
| 1777986634 | 16.11° C | 82% | 1008 hPa | 0 mm | 1.79 m/s, 264° | - | - |
| 1777986335 | 16.11° C | 83% | 1007.9 hPa | 0 mm | 0.45 m/s, 283° | - | - |
| 1777986033 | 15.56° C | 84% | 1007.7 hPa | 0 mm | 0 m/s | - | - |
| 1777985735 | 15.56° C | 84% | 1007.8 hPa | 0 mm | 0 m/s | - | - |
| 1777985433 | 15° C | 85% | 1007.7 hPa | 0 mm | 0.45 m/s, 211° | - | - |
| 1777985138 | 15° C | 85% | 1007.7 hPa | 0 mm | 0.45 m/s, 198° | - | - |
| 1777984832 | 15° C | 85% | 1007.8 hPa | 0 mm | 0 m/s | - | - |
| 1777984536 | 15° C | 86% | 1007.7 hPa | 0 mm | 1.79 m/s, 248° | - | - |
| 1777984232 | 15° C | 86% | 1007.6 hPa | 0 mm | 0 m/s | - | - |
| 1777983934 | 15° C | 86% | 1007.6 hPa | 0 mm | 0.45 m/s, 195° | - | - |
| 1777983632 | 15° C | 86% | 1007.6 hPa | 0 mm | 0 m/s | - | - |
* Rain latest hour (hover to see other rain measurements)
** Current wind speed in m/s (hover to see current wind gust speed)